Princeton, MN

1:05 AM CDT on March 26, 2017 (GMT -0500)
Princeton Municipal

Weather History for KPNM - December, 2012

Change the Weather History Date:

Monday, December 31, 2012

  Actual Average Record
Temperature  
Mean Temperature 1 °F -  
Max Temperature 15 °F 20 °F 39 °F (2006)
Min Temperature -13 °F 5 °F -25 °F (2008)
Degree Days  
Heating Degree Days 64    
Moisture  
Dew Point -3 °F    
Average Humidity 72    
Maximum Humidity 86    
Minimum Humidity 57    
Precipitation  
Precipitation 0.00 in - - ()
Sea Level Pressure  
Sea Level Pressure 30.14 in    
Wind  
Wind Speed 7 mph (WNW)    
Max Wind Speed 14 mph    
Max Gust Speed 20 mph    
Visibility 10 miles    
Events Snow    
Averages and records for this station are not official NWS values.
T = Trace of Precipitation, MM = Missing Value Source: NWS Daily Summary

Daily Weather History Graph

Daily Weather History Graph

Search for Another Location

Airport or City:

Trip Planner

Search our weather history database for the weather conditions in past years. The results will help you decide how hot, cold, wet, or windy it might be!

Date:

Astronomy

Dec. 31, 2012 Rise Set
Actual Time 7:54 AM CST 4:40 PM CST
Civil Twilight 7:20 AM CST 5:15 PM CST
Nautical Twilight 6:43 AM CST 5:52 PM CST
Astronomical Twilight 6:07 AM CST 6:28 PM CST
Moon 8:23 PM CST (12/31) 9:26 AM CST (12/31)
Length of Visible Light 9h 54m
Length of Day
8h 46m
Waning Gibbous, 90% of the Moon is Illuminated
Dec 31
Waning Gibbous
Jan 4
Last Quarter
Jan 11
New
Jan 18
First Quarter
Jan 26
Full

Hourly Weather History & Observations

Time (CST) Temp. Windchill Dew Point Humidity Pressure Visibility Wind Dir Wind Speed Gust Speed Precip Events Conditions
12:11 AM 12.2 °F -1.0 °F 8.6 °F 85% 29.95 in 10.0 mi WNW 10.4 mph - N/A   Clear
12:32 AM 12.2 °F 1.7 °F 8.6 °F 85% 29.96 in 10.0 mi West 6.9 mph - N/A   Mostly Cloudy
12:51 AM 12.2 °F 1.7 °F 8.6 °F 85% 29.97 in 10.0 mi West 6.9 mph - N/A   Overcast
1:11 AM 14.0 °F 3.9 °F 10.4 °F 86% 29.98 in 10.0 mi West 6.9 mph - N/A   Overcast
1:31 AM 15.8 °F 3.4 °F 10.4 °F 79% 29.99 in 10.0 mi WNW 10.4 mph - N/A   Overcast
1:51 AM 15.8 °F 2.7 °F 12.2 °F 86% 29.99 in 10.0 mi WNW 11.5 mph - N/A Snow Light Snow
2:11 AM 15.8 °F 2.1 °F 10.4 °F 79% 30.01 in 10.0 mi WNW 12.7 mph 19.6 mph N/A Snow Light Snow
2:31 AM 15.8 °F 2.1 °F 8.6 °F 73% 30.02 in 10.0 mi WNW 12.7 mph 18.4 mph N/A   Overcast
2:51 AM 14.0 °F -0.2 °F 6.8 °F 73% 30.03 in 10.0 mi WNW 12.7 mph 19.6 mph N/A   Mostly Cloudy
3:11 AM 12.2 °F -3.1 °F 6.8 °F 79% 30.05 in 10.0 mi WNW 13.8 mph 19.6 mph N/A   Scattered Clouds
3:31 AM 12.2 °F -0.2 °F 5.0 °F 73% 30.06 in 10.0 mi WNW 9.2 mph - N/A   Scattered Clouds
3:51 AM 10.4 °F -0.4 °F 3.2 °F 73% 30.07 in 10.0 mi West 6.9 mph - N/A   Clear
4:11 AM 8.6 °F -2.6 °F 1.4 °F 73% 30.07 in 10.0 mi West 6.9 mph - N/A   Clear
4:31 AM 8.6 °F -2.6 °F 1.4 °F 73% 30.06 in 10.0 mi WNW 6.9 mph - N/A   Clear
4:51 AM 8.6 °F -1.3 °F 1.4 °F 73% 30.07 in 10.0 mi West 5.8 mph - N/A   Clear
5:11 AM 6.8 °F -3.5 °F 1.4 °F 79% 30.07 in 10.0 mi West 5.8 mph - N/A   Clear
5:31 AM 8.6 °F -1.3 °F 1.4 °F 73% 30.08 in 10.0 mi West 5.8 mph - N/A   Clear
5:52 AM 6.8 °F -0.1 °F 1.4 °F 79% 30.08 in 10.0 mi WNW 3.5 mph - N/A   Clear
6:32 AM 6.8 °F -7.8 °F 1.4 °F 79% 30.11 in 10.0 mi WNW 10.4 mph - N/A   Clear
6:51 AM 6.8 °F -6.9 °F -0.4 °F 72% 30.11 in 10.0 mi WNW 9.2 mph - N/A   Clear
7:32 AM 5.0 °F -6.9 °F -2.2 °F 72% 30.12 in 10.0 mi West 6.9 mph - N/A   Clear
7:51 AM 3.2 °F -9.1 °F -4.0 °F 72% 30.13 in 10.0 mi WNW 6.9 mph - N/A   Clear
8:11 AM 3.2 °F -10.3 °F -5.8 °F 66% 30.14 in 10.0 mi WNW 8.1 mph - N/A   Clear
8:32 AM 3.2 °F -10.3 °F -4.0 °F 72% 30.15 in 10.0 mi WNW 8.1 mph - N/A   Clear
8:51 AM 3.2 °F -12.2 °F -4.0 °F 72% 30.15 in 10.0 mi WNW 10.4 mph - N/A   Clear
9:11 AM 3.2 °F -10.3 °F -4.0 °F 72% 30.16 in 10.0 mi NW 8.1 mph - N/A   Clear
9:32 AM 3.2 °F -13.1 °F -4.0 °F 72% 30.16 in 10.0 mi NW 11.5 mph - N/A   Clear
9:51 AM 3.2 °F -10.3 °F -4.0 °F 72% 30.18 in 10.0 mi WNW 8.1 mph - N/A   Clear
10:11 AM 3.2 °F -11.3 °F -5.8 °F 66% 30.18 in 10.0 mi WNW 9.2 mph - N/A   Clear
10:32 AM 3.2 °F -10.3 °F -4.0 °F 72% 30.19 in 10.0 mi NW 8.1 mph - N/A   Clear
10:51 AM 5.0 °F -5.6 °F -4.0 °F 66% 30.19 in 10.0 mi NW 5.8 mph - N/A   Clear
11:11 AM 5.0 °F -4.1 °F -4.0 °F 66% 30.18 in 10.0 mi WNW 4.6 mph - N/A   Clear
11:31 AM 6.8 °F -4.8 °F -4.0 °F 61% 30.17 in 10.0 mi WNW 6.9 mph - N/A   Clear
11:51 AM 6.8 °F -5.9 °F -4.0 °F 61% 30.17 in 10.0 mi NW 8.1 mph - N/A   Clear
12:12 PM 6.8 °F -5.9 °F -4.0 °F 61% 30.16 in 10.0 mi NW 8.1 mph - N/A   Clear
12:31 PM 6.8 °F -5.9 °F -4.0 °F 61% 30.16 in 10.0 mi NW 8.1 mph - N/A   Clear
12:51 PM 8.6 °F -1.3 °F -2.2 °F 62% 30.15 in 10.0 mi WNW 5.8 mph - N/A   Clear
1:12 PM 8.6 °F 0.1 °F -2.2 °F 62% 30.15 in 10.0 mi WNW 4.6 mph - N/A   Clear
1:31 PM 8.6 °F -1.3 °F -2.2 °F 62% 30.15 in 10.0 mi West 5.8 mph - N/A   Clear
1:51 PM 8.6 °F -1.3 °F -2.2 °F 62% 30.16 in 10.0 mi West 5.8 mph - N/A   Clear
2:12 PM 8.6 °F -2.6 °F -4.0 °F 57% 30.16 in 10.0 mi West 6.9 mph - N/A   Clear
2:31 PM 8.6 °F -1.3 °F -2.2 °F 62% 30.17 in 10.0 mi West 5.8 mph - N/A   Clear
2:50 PM 8.6 °F -2.6 °F -4.0 °F 57% 30.17 in 10.0 mi WSW 6.9 mph - N/A   Clear
3:12 PM 8.6 °F -1.3 °F -4.0 °F 57% 30.18 in 10.0 mi West 5.8 mph - N/A   Clear
3:31 PM 8.6 °F -1.3 °F -4.0 °F 57% 30.18 in 10.0 mi West 5.8 mph - N/A   Clear
3:51 PM 6.8 °F -2.0 °F -4.0 °F 61% 30.19 in 10.0 mi West 4.6 mph - N/A   Clear
4:12 PM 5.0 °F -4.1 °F -5.8 °F 61% 30.19 in 10.0 mi West 4.6 mph - N/A   Clear
4:31 PM 5.0 °F -4.1 °F -5.8 °F 61% 30.20 in 10.0 mi West 4.6 mph - N/A   Clear
5:11 PM 1.4 °F -6.2 °F -7.6 °F 66% 30.21 in 10.0 mi West 3.5 mph - N/A   Clear
5:31 PM -0.4 °F - -9.4 °F 66% 30.21 in 10.0 mi Calm Calm - N/A   Clear
5:51 PM -0.4 °F -8.3 °F -7.6 °F 72% 30.21 in 10.0 mi West 3.5 mph - N/A   Clear
5:59 PM -0.4 °F -8.3 °F -7.6 °F 72% 30.21 in 10.0 mi West 3.5 mph - N/A   Unknown
6:31 PM -2.2 °F -12.5 °F -7.6 °F 78% 30.20 in 10.0 mi WNW 4.6 mph - N/A   Clear
6:51 PM -2.2 °F -10.4 °F -7.6 °F 78% 30.21 in 10.0 mi West 3.5 mph - N/A   Clear
7:11 PM -4.0 °F -12.4 °F -9.4 °F 78% 30.21 in 10.0 mi West 3.5 mph - N/A   Clear
7:31 PM -4.0 °F -12.4 °F -9.4 °F 78% 30.22 in 10.0 mi West 3.5 mph - N/A   Clear
7:51 PM -5.8 °F -14.5 °F -9.4 °F 84% 30.22 in 10.0 mi West 3.5 mph - N/A   Clear
8:31 PM -4.0 °F -14.6 °F -7.6 °F 85% 30.22 in 10.0 mi West 4.6 mph - N/A   Clear
8:51 PM -2.2 °F -10.4 °F -7.6 °F 78% 30.21 in 10.0 mi WNW 3.5 mph - N/A   Clear
9:11 PM -2.2 °F -12.5 °F -7.6 °F 78% 30.21 in 10.0 mi NW 4.6 mph - N/A   Clear
9:31 PM -4.0 °F - -9.4 °F 78% 30.21 in 10.0 mi Calm Calm - N/A   Clear
10:11 PM -5.8 °F - -11.2 °F 77% 30.21 in 10.0 mi Calm Calm - N/A   Clear
10:31 PM -9.4 °F - -13.0 °F 84% 30.23 in 10.0 mi Calm Calm - N/A   Clear
10:51 PM -9.4 °F - -13.0 °F 84% 30.23 in 10.0 mi Calm Calm - N/A   Clear
11:11 PM -13.0 °F - -18.4 °F 77% 30.23 in 10.0 mi Calm Calm - N/A   Clear
11:31 PM -11.2 °F - -14.8 °F 84% 30.24 in 10.0 mi Calm Calm - N/A   Clear
11:51 PM -9.4 °F - -14.8 °F 77% 30.24 in 10.0 mi Calm Calm - N/A   Clear